Terug naar catalogus

COSMOS 2251 DEB

ActiefLEO
NORAD 34918·DEBRIS·🇷🇺 Russia

Gelanceerd Jun 16, 1993 vanaf Plesetsk Cosmodrome

Loading…

Volgende Passages (komende 24 uur)

TLE

VerouderdSource: Space-Track

Epoch: Aug 15, 2026, 16:52 UTC

1 34918U 93036ADP 26227.70298993  .00002719  00000-0  51698-3 0  9993
2 34918  74.0678 202.9076 0024141 109.7617  64.5438 14.64452219689335

Volg COSMOS 2251 DEB in realtime met AllMySat

Download on the App Store